Location: Lourdes
(43.1000°N, 0.0500°W)
Time: 04:44:30
(UTC+00:00)

Cosmos 1943 - Pass Details

Date: 30 November 2020
Orbit: 832 x 851 km, 71.0° (Epoch: 24 January)

Event Time Altitude Azimuth Distance (km) Brightness Sun altitude
Rises 18:03:42 0° 191° (S) 3,374 6.7 -17.3°
Reaches altitude 10° 18:06:09 10° 188° (S) 2,447 5.9 -17.7°
Maximum altitude 18:11:39 59° 110° (ESE) 968 3.2 -18.7°
Enters shadow 18:14:40 27° 41° (NE) 1,569 4.2 -19.2°
